FW2273 Weather Reports


time (UTC)temp
C
wind
direction
speed
KPH
gust
KPH
rain 1hr
cm
rain 24hr
cm
rain mn
cm
humidity
%
barometer
mb
20260906083017 20 279 0.0 0.0 0.00 0.00 0.00 97 1008.8
20260906081516 20 279 0.0 0.0 0.00 0.00 0.00 97 1008.9
20260906080012 20 279 0.0 0.0 0.00 0.00 0.00 97 1009.0
20260906074543 20 279 0.0 0.0 0.00 0.00 0.00 97 1008.9
20260906073042 20 279 0.0 0.0 0.00 0.00 0.00 97 1008.8
20260906071540 20 279 0.0 0.0 0.00 0.00 0.00 97 1009.0
20260906070040 20 279 0.0 0.0 0.00 0.00 0.00 97 1009.0
20260906064539 20 279 0.0 0.0 0.00 0.00 0.00 97 1009.1
20260906063038 20 279 0.0 0.0 0.00 0.00 0.00 97 1009.4
20260906061539 20 279 0.0 0.0 0.00 0.00 0.00 97 1009.2
20260906060037 20 279 0.0 0.0 0.00 0.00 0.00 97 1009.3
20260906054533 20 279 0.0 0.0 0.00 0.00 0.00 97 1009.6
20260906053034 20 279 0.0 0.0 0.00 0.00 0.00 97 1010.0
20260906051503 20 279 0.0 0.0 0.00 0.00 0.00 97 1010.1
20260906050003 20 279 0.0 0.0 0.00 0.00 0.00 97 1010.4
20260906044501 20 279 0.0 0.0 0.00 0.00 0.00 96 1010.3
20260906043100 20 279 0.0 0.0 0.00 0.00 0.00 96 1010.3
20260906043002 20 279 0.0 0.0 0.00 0.00 0.00 96 1010.5
20260906041600 20 279 0.0 0.0 0.00 0.00 0.00 96 1010.3
20260906040059 20 279 0.0 0.0 0.00 0.00 0.00 96 1010.3
20260906034557 20 279 0.0 0.0 0.00 0.00 0.00 96 1010.1
20260906033100 20 279 0.0 0.0 0.00 0.00 0.00 96 1010.2
20260906031559 20 279 0.0 0.0 0.00 0.00 0.00 96 1010.2
20260906030056 20 279 0.0 0.0 0.00 0.00 0.00 96 1009.9
20260906024554 20 279 0.0 0.0 0.00 0.00 0.00 95 1009.8
20260906023053 20 279 0.0 0.0 0.00 0.00 0.00 95 1009.9
20260906021558 21 279 0.0 0.0 0.00 0.00 0.00 95 1010.0
20260906020055 21 279 0.0 0.0 0.00 0.00 0.00 95 1009.6
20260906014552 21 279 0.0 0.0 0.00 0.00 0.00 94 1009.3
20260906013049 21 279 0.0 0.0 0.00 0.00 0.00 94 1009.4
20260906011602 21 279 0.0 0.0 0.00 0.00 0.00 94 1009.4
20260906010047 21 279 0.0 0.0 0.00 0.00 0.00 93 1009.2
20260906004545 22 279 0.0 0.0 0.00 0.00 0.00 93 1009.1
20260906003044 22 279 0.0 0.0 0.00 0.00 0.00 93 1009.4
20260906001543 22 279 0.0 0.0 0.00 0.00 0.00 93 1008.9
20260906000043 22 279 0.0 0.0 0.00 0.00 0.00 93 1009.1
20260905234540 23 279 0.0 0.0 0.00 0.00 0.00 93 1008.7
20260905233102 23 279 0.0 0.0 0.00 0.00 0.00 92 1008.6
20260905231550 23 279 0.0 0.0 0.00 0.00 0.00 92 1008.6
20260905230043 23 279 0.0 0.0 0.00 0.00 0.00 92 1008.3
20260905224547 23 279 0.0 0.0 0.00 0.00 0.00 92 1008.2
20260905223035 23 279 0.0 0.0 0.00 0.00 0.00 93 1008.3
20260905221539 24 279 0.0 0.0 0.00 0.00 0.00 93 1008.1
20260905220033 23 279 0.0 0.0 0.00 0.00 0.00 93 1008.4
20260905214501 23 279 0.0 0.0 0.00 0.00 0.00 93 1008.5
20260905213001 23 279 0.0 0.0 0.00 0.00 0.00 93 1008.6
20260905211559 23 279 0.0 0.0 0.00 0.00 0.00 93 1008.6
20260905210059 23 279 0.0 0.0 0.00 0.00 0.00 92 1009.0
20260905204557 23 279 0.0 0.0 0.00 0.00 0.00 91 1009.1
20260905203058 23 279 0.0 0.0 0.00 0.00 0.00 89 1009.5
20260905201606 24 279 0.0 0.0 0.00 0.00 0.00 87 1009.2
20260905200053 25 279 0.0 0.0 0.00 0.00 0.00 86 1009.3
20260905194652 26 279 0.0 0.0 0.00 0.00 0.00 83 1009.6
20260905193051 27 279 0.0 3.2 0.00 0.00 0.00 82 1009.2
20260905191553 28 163 0.0 0.0 0.00 0.00 0.00 79 1009.3
20260905190100 29 163 0.0 6.4 0.00 0.00 0.00 74 1009.1
20260905184559 30 360 0.0 6.4 0.00 0.00 0.00 71 1009.1
20260905183043 29 254 0.0 0.0 0.00 0.00 0.00 79 1008.8
20260905181539 28 232 0.0 0.0 0.00 0.00 0.00 82 1008.7
20260905180031 27 184 0.0 3.2 0.00 0.00 0.00 83 1009.4
20260905174534 27 134 0.0 0.0 0.00 0.00 0.00 88 1009.8
20260905173030 26 134 0.0 0.0 0.00 0.00 0.00 87 1009.9
20260905171520 26 134 0.0 0.0 0.00 0.00 0.00 89 1010.0
20260905170013 25 153 0.0 0.0 0.00 0.00 0.00 90 1010.2
20260905164510 25 153 0.0 1.6 0.00 0.00 0.00 92 1010.1
20260905163006 23 200 0.0 0.0 0.00 0.00 0.00 95 1010.5
20260905161502 23 200 0.0 1.6 0.00 0.00 0.00 96 1010.6
20260905160059 23 200 1.6 3.2 0.00 0.00 0.00 97 1010.8
20260905154555 22 126 0.0 1.6 0.00 0.00 0.00 97 1010.8
20260905153054 22 206 0.0 0.0 0.00 0.00 0.00 98 1011.1
20260905151550 22 196 0.0 0.0 0.00 0.00 0.00 98 1011.0
20260905150018 22 196 0.0 0.0 0.00 0.00 0.00 98 1011.3
20260905144517 21 198 0.0 0.0 0.00 0.00 0.00 98 1011.4
20260905143016 21 209 0.0 0.0 0.00 0.00 0.00 98 1011.5
20260905141512 21 222 0.0 0.0 0.00 0.00 0.00 98 1011.5
20260905140010 21 278 0.0 0.0 0.00 0.00 0.00 98 1011.8
20260905134509 21 220 0.0 0.0 0.00 0.00 0.00 98 1012.0
20260905133005 21 220 0.0 0.0 0.00 0.00 0.00 98 1012.1
20260905131508 20 220 0.0 0.0 0.00 0.00 0.00 98 1012.2
20260905130003 20 220 0.0 0.0 0.00 0.00 0.00 98 1012.3
20260905124502 20 220 0.0 0.0 0.00 0.00 0.00 98 1012.3
20260905123107 20 220 0.0 0.0 0.00 0.00 0.00 98 1012.2
20260905121555 20 220 0.0 0.0 0.00 0.00 0.00 98 1011.9
20260905120054 20 220 0.0 0.0 0.00 0.00 0.00 98 1011.8
20260905114553 20 220 0.0 0.0 0.00 0.00 0.00 97 1011.8
20260905113021 20 220 0.0 0.0 0.00 0.00 0.00 97 1011.6
20260905111524 20 220 0.0 0.0 0.00 0.00 0.00 97 1011.5
20260905110018 20 220 0.0 0.0 0.00 0.00 0.00 97 1011.1
20260905104515 20 220 0.0 0.0 0.00 0.00 0.00 97 1010.9
20260905103025 20 220 0.0 0.0 0.00 0.00 0.00 97 1011.0
20260905101524 20 220 0.0 0.0 0.00 0.00 0.00 97 1010.8
20260905100010 20 220 0.0 0.0 0.00 0.00 0.00 97 1010.9
20260905094510 20 220 0.0 0.0 0.00 0.00 0.00 97 1010.9
20260905093009 20 220 0.0 0.0 0.00 0.00 0.00 97 1010.8
20260905091509 20 220 0.0 0.0 0.00 0.00 0.00 97 1010.8
20260905090007 20 220 0.0 0.0 0.00 0.00 0.00 97 1011.0
20260905084518 20 220 0.0 0.0 0.00 0.00 0.00 97 1011.1